Вернуться в каталог

GLOBAL-4

АктивенСвязьVLEO
NORAD 44499·PAYLOAD·🇺🇸 United States

Запущен Aug 19, 2019 с Rocket Lab Launch Complex 1

Loading…

Ближайшие Пролёты (ближайшие 24 часа)

TLE

СвежийSource: Space-Track

Эпоха: Sep 14, 2026, 12:34 UTC

1 44499U 19054E   26257.52418233  .00075233  00000-0  49866-3 0  9995
2 44499  45.0026  77.2934 0008112 258.5692 101.4298 15.74591117394394

Отслеживайте GLOBAL-4 в реальном времени с AllMySat

Download on the App Store